Regional Weather Roundup
Issued by NWS

Home | Current Version | Previous Version | Graphics & Text | Print | Product List | Glossary On
Versions: 1 2 3 4 5 6 7 8 9 10 11 12 13 14 15 16 17 18 19 20 21 22 23 24 25 26 27 28 29 30 31 32 33 34 35 36 37 38 39 40 41 42 43 44 45 46 47 48 49 50
000
ASUS45 KTFX 190319
RWRMT
MONTANA HOURLY WEATHER ROUNDUP
NATIONAL WEATHER SERVICE GREAT FALLS MT
819 PM MST THU DEC 18 2014

NOTE: "FAIR" INDICATES FEW OR NO CLOUDS BELOW 12000 FEET WITH NO
SIGNIFICANT WEATHER AND/OR OBSTRUCTIONS TO VISIBILITY.

* THESE STATIONS ARE NOT UNDER NWS QUALITY CONTROL. THEY DO NOT
   REPORT WEATHER SUCH AS PRECIPITATION OR FOG.

MTZ001>007-043-190400-
WEST OF THE DIVIDE
CITY           SKY/WX    TMP DP  RH WIND       PRES   REMARKS
KALISPELL      CLOUDY    30  30 100 CALM      29.98S
MISSOULA       LGT SNOW  30  28  92 CALM      30.03S
BUTTE          CLOUDY    25  19  78 CALM      29.99S
MULLAN PASS    FOG       30  28  92 VRB7      29.92R VSB 1/2  WCI  23
* ESSEX        N/A       31  30  96 N/A        N/A
* EUREKA APT   MOCLDY    36  30  79 S8        29.96S WCI  30
* HAMILTON APT MOCLDY    32  27  82 CALM      30.00S
* LIBBY APT    MOCLDY    32  30  92 CALM      29.99S VSB 2 1/2
* LINCOLN      N/A       30  29  96 SE2        N/A
* LOOKOUT PASS N/A       32  32 100 S3         N/A
* POLSON       N/A       33  31  92 SE1        N/A
* RONAN APT    CLOUDY    34  32  92 N/A        N/A
* SEELEY LAKE  N/A       28  27  96 N/A        N/A
* THOMP F APT  MOCLDY    24  23  96 E1G9       N/A
$$

MTZ008-052>055-190400-
SOUTHWEST MONTANA
CITY           SKY/WX    TMP DP  RH WIND       PRES   REMARKS
BOZEMAN        CLOUDY    28  21  75 CALM      30.02R
DILLON         CLOUDY    28  21  75 S7        30.01S WCI  21
* W YELLOWSTON CLOUDY    25  22  88 SW2G9      N/A
* THREE FORKS  PTCLDY    28  28 100 N/A        N/A
* BOULDER HILL N/A       28  15  58 S7         N/A   WCI  21
* MONIDA PASS  N/A       22  22 100 SE11       N/A   WCI  11
* RAYNOLDS PAS N/A       24  11  57 S9G14      N/A   WCI  14
* WHITEHALL    N/A       32  22  67 SW7G12     N/A   WCI  25
* WISE RIVER   N/A       23  20  88 N/A        N/A
$$

MTZ009>010-012-014-046-048-049-054-190400-
EAST SLOPES AND CENTRAL MONTANA
CITY           SKY/WX    TMP DP  RH WIND       PRES   REMARKS
CUT BANK       PTCLDY    34  27  76 W18       29.86S WCI  23
GREAT FALLS    PTCLDY    34  27  76 SW15      29.91S WCI  24
HELENA         MOCLDY    27  21  78 CALM      30.00S
MALMSTROM AFB  PTCLDY    34  28  79 SW15      29.92F WCI  24
* CONRAD       PTCLDY    30  27  89 SW6        N/A   WCI  24
* DEARBORN     N/A       40  26  57 S9G14      N/A   WCI  34
* EAST GLACIER N/A       34  24  67 W19G26     N/A   WCI  23
* MONARCH      N/A       32  17  54 SW10G19    N/A   WCI  24
* PENDROY      N/A       31  21  66 NW15       N/A   WCI  20
* ROGERS PASS  N/A       30  26  85 SE13G20    N/A   WCI  20
* SWEET GRASS  N/A       34  28  79 W12G17     N/A   WCI  25
* WHITE SULPH  N/A       33  22  64 S10        N/A   WCI  25
$$

MTZ011-013-016-021-035-040-045-047-050-051-190400-
NORTH CENTRAL MONTANA
CITY           SKY/WX    TMP DP  RH WIND       PRES   REMARKS
HAVRE          CLEAR     23  19  85 W5        29.90R WCI  16
LEWISTOWN      PTCLDY    36  25  64 W5        29.92S WCI  32
* N BAR RANCH  CLEAR     34  21  59 CALM      29.92S
* CHINOOK      CLEAR     18  16  92 CALM      29.92R VSB 1/2
* CHESTER      N/A       25  22  88 SW1        N/A
* DENTON       N/A       34  27  76 SW10       N/A   WCI  26
* GEYSER       N/A       33  21  61 VRB3       N/A
* JUDITH GAP   N/A       36  22  57 SW17       N/A   WCI  26
* LOMA         N/A       34  26  73 SW1        N/A
$$

MTZ017>020-022>027-061-062-190400-
NORTHEAST MONTANA
CITY           SKY/WX    TMP DP  RH WIND       PRES   REMARKS
GLASGOW        PTCLDY    21  19  92 CALM      29.90F
GLENDIVE       PTCLDY    27  23  85 S9        29.93S WCI  18
JORDAN         MOCLDY    32  27  82 W7        29.91S WCI  25
SIDNEY         PTCLDY    19  18  96 CALM      29.94F
WOLF POINT     MOCLDY    19  18  96 CALM      29.93S
* BEAVER HILL  N/A       31  26  82 S9         N/A   WCI  23
* CIRCLE       N/A       30  27  89 N/A        N/A
* LINDSAY DVD  N/A       33  26  75 W11        N/A   WCI  24
* NAVAJO       N/A       24  23  96 W2         N/A
* PLENTYWOOD A CLEAR     27  27 100 SW3       29.90F
* POPLAR APT   CLEAR     18  16  92 CALM      29.93R VSB M1/4
* SACO         N/A       20  18  92 NW2        N/A
$$

MTZ028>042-056>058-190400-
SOUTHCENTRAL AND SOUTHEAST MONTANA
CITY           SKY/WX    TMP DP  RH WIND       PRES   REMARKS
BAKER          CLEAR     32  27  82 SW9       29.94S WCI  24
BILLINGS       PTCLDY    34  19  54 SW21      29.98R WCI  22
LIVINGSTON     CLOUDY    39  21  48 SW18G33   29.98R WCI  30
MILES CITY     MOCLDY    30  25  82 CALM      29.95S
* FORSYTH APT  MOCLDY    36  25  64 CALM      29.95S
* LAUREL APT   PTCLDY    30  14  51 N/A        N/A
* ROUNDUP APT  PTCLDY    39  19  45 SW10       N/A   WCI  32
* ALZADA       N/A       27  22  81 NW2        N/A
* HYSHAM       N/A       31  21  66 W4         N/A
* LAME DEER    N/A       33  18  54 W8         N/A   WCI  26
* REED POINT   N/A       32  21  64 SE2        N/A
* ROSCOE HILL  N/A       37   6  27 S15G20     N/A   WCI  28
$$

REGIONAL REPORTS...DAKOTAS
CITY           SKY/WX    TMP DP  RH WIND       PRES   REMARKS
WILLISTON      CLOUDY    28  27  96 S5        29.94S WCI  22
DICKINSON      CLEAR     23  19  85 S7        29.91F WCI  15
BEACH          CLOUDY    28  28 100 SW8       29.93S WCI  20
CROSBY         FOG       27  27 100 CALM      29.93F
TIOGA          FOG       25  25 100 SW5       29.95F VSB 2    WCI  19
WATFORD CITY   FOG       27  27 100 S3        29.91F VSB 1/2
BISMARCK       CLOUDY    27  25  92 S3        30.03S
GRAND FORKS    CLOUDY    19  16  88 S9        30.15S WCI   8
FARGO          CLOUDY    21  16  81 S12       30.16F WCI   9
BUFFALO SD     PTCLDY    30  23  75 SW5       29.89F WCI  25
RAPID CITY     CLEAR     21  19  92 CALM      30.01R
$$

REGIONAL REPORTS...WYOMING/IDAHO/WASHINGTON
CITY           SKY/WX    TMP DP  RH WIND       PRES   REMARKS
GILLETTE       CLEAR     28  16  61 SW13      29.99S WCI  17
SHERIDAN       CLEAR     27  14  58 S7        29.98S WCI  19
CODY           PTCLDY    27  16  63 CALM      29.99F
YELLOWSTONE LA MOCLDY    23  16  74 VRB7      30.08S WCI  15
SALMON         MOCLDY    27  21  78 CALM      30.08S
MULLAN PASS    FOG       30  28  92 VRB7      29.92S VSB 1/2  WCI  23
SAND POINT     FOG       34  34 100 CALM      29.99R
SPOKANE        CLOUDY    37  37 100 SE5       29.95S WCI  33
$$

REGIONAL REPORTS...ALBERTA
CITY           SKY/WX    TMP DP  RH WIND       PRES   REMARKS
CALGARY        FAIR      28  21  75 S3        29.77F
LETHBRIDGE     FAIR      32  27  82 SW17      29.83F WCI  21
MEDICINE HAT   MOCLDY    16  16 100 NE5       29.86S WCI   8
EDMONTON       N/A       16  12  84 SE9       29.81F WCI   5
WATERTON GATE  N/A       36  25  64 SW15G22    N/A   WCI  27
CARDSTON       N/A       30  25  82 SW8        N/A   WCI  22
MILK RIVER     N/A       34  27  76 W9G17      N/A   WCI  27
$$

REGIONAL REPORTS...SASKATCHEWAN
CITY           SKY/WX    TMP DP  RH WIND       PRES   REMARKS
SWIFT CURRENT  CLOUDY    21  21 100 SW9       29.84S WCI  11
REGINA         FOG       25  25 100 S7        29.90S VSB 2    WCI  17
VAL MARIE      N/A       21  21 100 CALM       N/A
ASSINIBOIA     N/A       19  18  96 S5         N/A   WCI  12
CORONACH       N/A       23  21  92 W5         N/A   WCI  16

$$




USA.gov is the U.S. government's official web portal to all federal, state and local government web resources and services.